User: anonymous
Location: Santa Teresa Spring
(37.2333°N, 121.7000°W)
Time: 15:26:36
(UTC-07:00)
Language:

Cosmos 1633 - Orbit

View from above orbital plane
View from above orbital plane
View from above satellite
View from above satellite

Ground track
Ground track

The orbit data is extracted from the following two-line orbital elements,

1 15592U 85020A   14213.09847134  .00004315  00000-0  20436-3 0  5081
2 15592 082.5417 286.8511 0016051 273.6890 127.0900 15.18961111604104
Epoch (UTC): 01 August 2014 02:21:47
Eccentricity: 0.0016051
inclination: 82.5417°
perigee height: 498 km
apogee height: 520 km
right ascension of ascending node: 286.8511°
argument of perigee: 273.6890°
revolutions per day: 15.18961111
mean anomaly at epoch: 127.0900°
orbit number at epoch: 60410

The dashed part of the orbit path shows where the satellite is in the earth's shadow,  

DLR